Home   Weather   Billings   Past weeks

Flag for USA Past Weather in Billings, Montana, USA — Yesterday and Last 2 Weeks

Now
37 °F

Overcast.


Feels Like: 30 °F
Forecast: 27 / 37 °F
Wind: 10 mph from West

Location: Billings Logan International Airport

Current Time: Jan 19, 2017 at 6:54:30 pm

Latest Report: Jan 19, 2017 at 5:53 pm


Visibility: 10 mi

Pressure: 29.56 "Hg (26.29 "Hg at 946m altitude)

Humidity: 65%

Dew Point: 26 °F

Location of BillingsLocation

Past Weather in Billings — Graph

°F

Billings Temperature Yesterday

Maximum temperature yesterday: 45 °F (at 12:53 pm)
Minimum temperature yesterday: 31 °F (at 2:53 am)
Average temperature yesterday: 38 °F

High & Low Weather Summary for the Past Weeks

 TemperatureHumidityPressure
High45 °F (Jan 18, 12:53 pm)91% (Jan 10, 8:53 am)30.51 "Hg (Jan 10, 8:53 am)
Low-9 °F (Jan 5, 6:53 am)38% (Jan 18, 12:53 pm)29.51 "Hg (Jan 9, 6:02 pm)
Average14 °F65%30.09 "Hg
* Reported Jan 4 4:53 pm — Jan 19 4:53 pm, Billings, Weather by CustomWeather, © 2017

Note: Actual official high and low records may vary slightly from our data, if they occured in-between our weather recording intervals... More about our weather records

Advertising

Billings Weather History for the Previous 24 Hours

Scroll right to see more
 ConditionsComfort  
Time TempWeatherWind HumidityBarometerVisibility
4:53 pm
Thu, Jan 19
38 °FMostly cloudy.14 mph60%29.55 "Hg10 mi
3:53 pm38 °FOvercast.14 mph60%29.54 "Hg10 mi
2:53 pm40 °FPartly sunny.16 mph55%29.52 "Hg10 mi
1:53 pm41 °FPartly sunny.7 mph55%29.52 "Hg10 mi
12:53 pm41 °FPartly sunny.14 mph55%29.52 "Hg10 mi
11:53 am40 °FPartly sunny.14 mph49%29.54 "Hg10 mi
10:53 am38 °FScattered clouds.14 mph53%29.57 "Hg10 mi
9:53 am34 °FScattered clouds.12 mph59%29.58 "Hg10 mi
8:53 am34 °FScattered clouds.14 mph56%29.57 "Hg10 mi
7:53 am32 °FPassing clouds.13 mph61%29.57 "Hg10 mi
6:53 am34 °FPassing clouds.14 mph56%29.56 "Hg10 mi
5:53 am36 °FPassing clouds.21 mph52%29.55 "Hg10 mi
4:53 am33 °FPassing clouds.16 mph58%29.55 "Hg10 mi
3:53 am33 °FClear.21 mph58%29.55 "Hg10 mi
2:53 am34 °FClear.16 mph54%29.56 "Hg10 mi
1:53 am36 °FPassing clouds.22 mph50%29.57 "Hg10 mi
12:53 am35 °FPassing clouds.17 mph52%29.58 "Hg10 mi
11:53 pm
Wed, Jan 18
36 °FPassing clouds.18 mph52%29.59 "Hg10 mi
10:53 pm34 °FClear.13 mph59%29.62 "Hg10 mi
9:53 pm35 °FPassing clouds.16 mph56%29.62 "Hg10 mi
8:53 pm37 °FClear.17 mph54%29.64 "Hg10 mi
7:53 pm38 °FClear.18 mph55%29.65 "Hg10 mi
6:53 pm39 °FPassing clouds.12 mph53%29.67 "Hg10 mi
Weather by CustomWeather, © 2017

See weather overviewHow to use our weather pages